"Pseudo-MPEC" for C1F4195

Created 2026 Jun 5 10:35:03 UT using Find_Orb

Click here for an explanation of pseudo-MPECs

 
 Astrometry: 
     C1F4195*1C2026 05 26.38226316 06 11.650+07 21 39.85   ~5Q9o 21.63GVNEOCPV00
     C1F4195 1C2026 05 26.38785416 06 11.758+07 22 15.82   ~5Q9o 22.07GVNEOCPV00
     C1F4195 1C2026 05 26.39343716 06 11.876+07 22 52.57   ~5Q9o 22.03GVNEOCPV00
     C1F4195 1C2026 05 26.44589216 06 13.471+07 28 29.96   ~5QB5 21.69GVNEOCPV00
     C1F4195 1C2026 05 26.44651316 06 13.511+07 28 33.78   ~5QB5 21.64GVNEOCPV00
     C1F4195 1C2026 05 26.44713316 06 13.518+07 28 37.70   ~5QB5 21.59GVNEOCPV00
     C1F4195 1C2026 05 26.44775416 06 13.550+07 28 41.45   ~5QB5 21.82GVNEOCPV00

Station data:
(V00) Kitt Peak-Bok  (N31.963125 W111.600190)  US/Arizona. Measurers T.
   Beuden, V. F. Carvajal, D. Fay, J. B. Fazekas, D. C. Fuls, A. R. Gibbs, A.
   D. Grauer, H. Gröller, J. K. Hogan, R. A. Kowalski, S. M. Larson, G. J.
   Leonard, D. Rankin, R. L. Seaman, F. C. Shelly, K. W. Wierzchoś. 2.25-m
   reflector + 4x4K mosaic CCD.

Orbital elements:  C1F4195
   Perihelion 2026 Apr 2.613350 +/- 51.1 TT = 14:43:13.4 (JD 2461133.113350)
Epoch 2026 May 26.0 TT = JDT 2461186.5   Earth MOID: 0.0483      AutoNEOCP
M  16.623021611 +/- 30              (J2000 ecliptic)
n   0.311370383 +/- 0.223           Peri.  297.071673 +/- 80
a   2.155846564 +/- 1.03            Node   238.295925 +/- 40
e   0.60345382 +/- 0.218            Incl.   28.571107 +/- 10
P   3.16539                H 25.01  G  0.15   U 11.7  SR
q 0.854892711 +/- 0.18    Q 3.456800417 +/- 2.57
From 7 observations 2026 May 26 (94.3 min); mean residual 0".27
Residuals in arcseconds: 
260526 V00  .56+  .01-    260526 V00  .14-  .19+    260526 V00  .13+  .23-    
260526 V00  .07-  .28-    260526 V00  .15+  .03+    
260526 V00  .59-  .32+    260526 V00  .04-  .01-    

Ephemerides (geocentric):
Date (UTC) HH   RA             Dec           delta  r     elong  mag " sig PA
---- --------  ------------   ------------  ------ ------ -----  --- --------
2026 06 05 11  16 10 57.602   +16 27 51.81  .25134 1.2172 139.7 23.8  39d  93
2026 06 05 12  16 10 58.388   +16 28 51.57  .25185 1.2175 139.7 23.8  39d  92
2026 06 05 13  16 10 59.173   +16 29 50.98  .25236 1.2179 139.6 23.8  39d  92
2026 06 05 14  16 10 59.958   +16 30 50.05  .25286 1.2182 139.6 23.8  39d  92
2026 06 05 15  16 11 00.740   +16 31 48.77  .25337 1.2186 139.6 23.8  40d  92
2026 06 05 16  16 11 01.522   +16 32 47.15  .25388 1.2190 139.6 23.8  40d  92
2026 06 05 17  16 11 02.303   +16 33 45.19  .25438 1.2193 139.5 23.8  40d  92
2026 06 05 18  16 11 03.083   +16 34 42.90  .25489 1.2197 139.5 23.8  40d  92
2026 06 05 19  16 11 03.861   +16 35 40.26  .25540 1.2200 139.5 23.9  40d  92
2026 06 05 20  16 11 04.639   +16 36 37.30  .25591 1.2204 139.4 23.9  40d  92
2026 06 05 21  16 11 05.415   +16 37 34.00  .25642 1.2208 139.4 23.9  40d  92
2026 06 05 22  16 11 06.191   +16 38 30.37  .25692 1.2211 139.4 23.9  40d  91
2026 06 05 23  16 11 06.965   +16 39 26.41  .25743 1.2215 139.3 23.9  40d  91
2026 06 06 00  16 11 07.738   +16 40 22.12  .25794 1.2219 139.3 23.9  40d  91
2026 06 06 01  16 11 08.511   +16 41 17.51  .25845 1.2222 139.3 23.9  40d  91
2026 06 06 02  16 11 09.282   +16 42 12.57  .25896 1.2226 139.3 23.9  40d  91
2026 06 06 03  16 11 10.053   +16 43 07.32  .25947 1.2229 139.2 23.9  40d  91
2026 06 06 04  16 11 10.822   +16 44 01.74  .25998 1.2233 139.2 23.9  40d  91
2026 06 06 05  16 11 11.591   +16 44 55.84  .26048 1.2237 139.2 23.9  40d  91
2026 06 06 06  16 11 12.358   +16 45 49.62  .26099 1.2240 139.1 23.9  40d  91
2026 06 06 07  16 11 13.125   +16 46 43.09  .26150 1.2244 139.1 23.9  40d  91
2026 06 06 08  16 11 13.891   +16 47 36.25  .26201 1.2248 139.1 23.9  40d  91
2026 06 06 09  16 11 14.656   +16 48 29.09  .26252 1.2251 139.1 23.9  40d  91
2026 06 06 10  16 11 15.420   +16 49 21.63  .26303 1.2255 139.0 23.9  40d  90
2026 06 06 11  16 11 16.183   +16 50 13.85  .26354 1.2258 139.0 23.9  40d  90
2026 06 06 12  16 11 16.946   +16 51 05.77  .26405 1.2262 139.0 23.9  40d  90
2026 06 06 13  16 11 17.707   +16 51 57.38  .26456 1.2266 138.9 23.9  40d  90
2026 06 06 14  16 11 18.468   +16 52 48.68  .26507 1.2269 138.9 24.0  40d  90
2026 06 06 15  16 11 19.228   +16 53 39.69  .26558 1.2273 138.9 24.0  40d  90
2026 06 06 16  16 11 19.987   +16 54 30.39  .26609 1.2276 138.9 24.0  40d  90
2026 06 06 17  16 11 20.746   +16 55 20.79  .26660 1.2280 138.8 24.0  40d  90
2026 06 06 18  16 11 21.503   +16 56 10.89  .26711 1.2284 138.8 24.0  40d  90
2026 06 06 19  16 11 22.260   +16 57 00.70  .26762 1.2287 138.8 24.0  40d  90
2026 06 06 20  16 11 23.016   +16 57 50.21  .26813 1.2291 138.7 24.0  40d  90
2026 06 06 21  16 11 23.772   +16 58 39.43  .26864 1.2295 138.7 24.0  40d  90
2026 06 06 22  16 11 24.526   +16 59 28.36  .26915 1.2298 138.7 24.0  40d  90
2026 06 06 23  16 11 25.280   +17 00 16.99  .26966 1.2302 138.7 24.0  40d  90
2026 06 07 00  16 11 26.034   +17 01 05.34  .27017 1.2305 138.6 24.0  40d  90
2026 06 07 01  16 11 26.786   +17 01 53.39  .27068 1.2309 138.6 24.0  40d  89
2026 06 07 02  16 11 27.538   +17 02 41.16  .27120 1.2313 138.6 24.0  40d  89
2026 06 07 03  16 11 28.290   +17 03 28.65  .27171 1.2316 138.5 24.0  40d  89
2026 06 07 04  16 11 29.041   +17 04 15.85  .27222 1.2320 138.5 24.0  40d  89
2026 06 07 05  16 11 29.791   +17 05 02.77  .27273 1.2324 138.5 24.0  40d  89
2026 06 07 06  16 11 30.540   +17 05 49.41  .27324 1.2327 138.5 24.0  40d  89
2026 06 07 07  16 11 31.289   +17 06 35.77  .27375 1.2331 138.4 24.0  40d  89
2026 06 07 08  16 11 32.037   +17 07 21.85  .27426 1.2335 138.4 24.0  40d  89
2026 06 07 09  16 11 32.785   +17 08 07.65  .27478 1.2338 138.4 24.0  40d  89
2026 06 07 10  16 11 33.532   +17 08 53.18  .27529 1.2342 138.4 24.1  40d  89